Regional Weather Roundup
Issued by NWS Cleveland, OH

Home | Current Version | Previous Version | Text Only | Print | Product List | Glossary Off
Versions: 1 2 3 4 5 6 7 8 9 10 11 12 13 14 15 16 17 18 19 20 21 22 23 24 25 26 27 28 29 30 31 32 33 34 35 36 37 38 39 40 41 42 43 44 45 46 47 48 49 50

000
ASUS41 KCLE 232102
RWRCLE
OHIO REGIONAL WEATHER ROUNDUP
NATIONAL WEATHER SERVICE CLEVELAND, OH
500 PM EDT THU MAR 23 2017

NOTE: "FAIR" INDICATES FEW OR NO CLOUDS BELOW 12,000 FEET WITH NO
SIGNIFICANT WEATHER AND/OR OBSTRUCTIONS TO VISIBILITY.

OHZ001>008-015>018-024>027-034-035-043-044-232200-
   NORTHWEST OHIO

CITY           SKY/WX    TMP DP  RH WIND       PRES   REMARKS
DEFIANCE       CLOUDY    47  14  26 SE7       30.30F
FINDLAY        SUNNY     51  11  20 SE13      30.30F
TOLEDO EXPRESS SUNNY     48   9  20 S9G17     30.31F
TOLEDO EXEC    SUNNY     45  26  47 E12       30.33F
LIMA           SUNNY     51  15  23 SE15      30.29F
$$

OHZ009>014-019>023-028>033-038-089-232200-
   NORTHEAST OHIO

CITY           SKY/WX    TMP DP  RH WIND       PRES   REMARKS
CLE-HOPKINS    SUNNY     50   5  16 S5        30.39F
CLE-LAKEFRONT  SUNNY     38  32  79 NE13      30.37F
CUY CO. ARPT   MOSUNNY   50  10  20 S9        30.38F
LORAIN-ELYRIA  SUNNY     48  12  23 SE12      30.36F
ASHTABULA      SUNNY     46  12  25 SE8       30.39F
AKRON-CANTON   MOSUNNY   49   9  19 SE7       30.36F
WOOSTER        SUNNY     47  13  25 SE10      30.36F
MANSFIELD      SUNNY     49  10  20 SE13      30.33F
YOUNGSTOWN     MOSUNNY   47   6  18 SE8       30.39F
$$

OHZ042-051>053-060>062-070>072-077>081-232200-
  SOUTHWEST OHIO

CITY           SKY/WX    TMP DP  RH WIND       PRES   REMARKS
CINC-COVINGTON MOSUNNY   59  24  26 S10       30.26F
CINC-LUNKEN    SUNNY     59  25  27 SE6       30.29F
HAMILTON       SUNNY     58  23  26 VRB7      30.29F
DAYTON         PTSUNNY   52  24  33 SE14      30.29F
WRIGHT-PAT AFB SUNNY     54  20  26 SE8       30.30F
DAYTON GENERAL SUNNY     55  23  28 S10       30.29F
WILMINGTON     SUNNY     55  26  32 S9        30.29F
$$

OHZ036-037-039>041-045>050-054>059-063>069-073>076-082>088-232200-
  CENTRAL AND SOUTHEAST OHIO

CITY           SKY/WX    TMP DP  RH WIND       PRES   REMARKS
COLUMBUS       MOSUNNY   54  11  18 SE12      30.33F
OSU AIRPORT    SUNNY     53  14  21 SE7       30.32F
BOLTON FIELD   SUNNY     54  19  26 SE10      30.33F
RICKENBACK AFB SUNNY     54  16  22 SE8       30.32F
NEWARK         SUNNY     53  10  18 SE10      30.33F
MARION         SUNNY     51   6  16 SE14G21   30.33F
LANCASTER      SUNNY     56  13  18 SE8       30.33F
ZANESVILLE     SUNNY     55   6  14 SE9       30.35F
NEW PHILLY     NOT AVBL
$$




USA.gov is the U.S. government's official web portal to all federal, state and local government web resources and services.